User: anonymous   Login
Location: *
(40.7765°S, 106.5327°E)
Time: 01:20:48
(UTC+00:00)
Language:

STARLINK-3512 - Orbit

View from above orbital plane
View from above orbital plane
View from above satellite
View from above satellite

Ground track
Ground track

The orbit data is extracted from the following two-line orbital elements,

1 51743C 22016AF  23033.80743056 -.00043881  00000-0 -27508-2 0   334
2 51743  53.2183 345.8465 0001362  84.5906 302.0550 15.08894293    18
Epoch (UTC): 02 February 2023 19:22:42
Eccentricity: 0.0001362
inclination: 53.2183°
perigee height: 538 km
apogee height: 540 km
right ascension of ascending node: 345.8465°
argument of perigee: 84.5906°
revolutions per day: 15.08894293
mean anomaly at epoch: 302.0550°
orbit number at epoch: 1

The dashed part of the orbit path shows where the satellite is in the earth's shadow,  

DLR